Location: Park Creek Village Mobile Home Park
(38.2885°N, 122.4714°W)
Time: 04:11:09
(UTC+00:00)

GPS 2-04 Rocket1 - Pass Details

Date: 14 December 2019
Orbit: 419 x 551 km, 35.6° (Epoch: 26 January)

Event Time Altitude Azimuth Distance (km) Brightness Sun altitude
Exits shadow 14:24:03 - 252° (WSW) 1,794 5.0 -10.5°
Reaches altitude 10° 14:24:18 10° 252° (WSW) 1,695 4.9 -10.5°
Maximum altitude 14:28:08 55° 174° (S) 618 3.2 -9.8°
Drops below altitude 10° 14:32:07 10° 96° (E) 1,769 6.8 -9.1°
Sets 14:34:27 0° 92° (E) 2,677 7.8 -8.6°
